Regional Weather Roundup
Issued by NWS Upton, NY

Current Version | Previous Version | Text Only | Print | Product List | Glossary On
Versions: 1 2 3 4 5 6 7 8 9 10 11 12 13 14 15 16 17 18 19 20 21 22 23 24 25 26 27 28 29 30 31 32 33 34 35 36 37 38 39 40 41 42 43 44 45 46 47 48 49 50
000
ASUS41 KOKX 281808
RWROKX

REGIONAL WEATHER ROUNDUP
NATIONAL WEATHER SERVICE NEW YORK NY
200 PM EDT SAT MAR 28 2015

NOTE: "FAIR" INDICATES FEW OR NO CLOUDS BELOW 12,000 FEET WITH NO
SIGNIFICANT WEATHER AND/OR OBSTRUCTIONS TO VISIBILITY.

NYZ071-072-176-178-NJZ106-104-281900-
NEW YORK CITY METRO AREA


CITY           SKY/WX    TMP DP  RH WIND       PRES   REMARKS
CENTRAL PARK   CLOUDY    37  23  56 NE7       29.86S WCI  32
LAGUARDIA APRT FLURRIES  34  24  67 N14G22    29.84S WCI  25
KENNEDY INTL   FLURRIES  36  25  64 N15       29.84S WCI  27
NEWARK/LIBERTY PTSUNNY   43  18  36 N16G23    29.84S
BRNX BOT. GARD   N/A    N/A N/A N/A W8        29.85S
TETERBORO      CLOUDY    37  23  56 N9        29.84S WCI  30
$$

NYZ177-179-078>081-281900-
LONG ISLAND NEW YORK

CITY           SKY/WX    TMP DP  RH WIND       PRES   REMARKS
FARMINGDALE    LGT SNOW  32  25  75 NW14G24   29.83R WCI  22
ISLIP          SNOW      32  28  85 NW16G26   29.79R VSB 1/2 WCI  21
SHIRLEY        LGT SNOW  32  28  85 NW17G24   29.80R VSB 3/4 WCI  21
WESTHAMPTON    SNOW      33  30  88 NW18G25   29.79R VSB 1/2 WCI  22
MONTAUK POINT    N/A     37  34  89 N9        29.75R WCI  30
$$

NYZ052-065-067-281900-
HUDSON VALLEY

CITY           SKY/WX    TMP DP  RH WIND       PRES   REMARKS
WHITE PLAINS   LGT SNOW  31  22  69 NW20      29.82R WCI  19
NEWBURGH       LGT SNOW  32  27  80 NE12      29.86R WCI  23
MONTGOMERY     LGT SNOW  34  28  79 NE8       29.85R WCI  27
POUGHKEEPSIE   CLOUDY    33  23  66 N15G22    29.87S HAZE    WCI  23
ALBANY         LGT SNOW  28  20  71 NW10      29.92F WCI  19
$$

NJZ001-105-106-008-010-013-015-019>022-104-281900-
NEW JERSEY

CITY           SKY/WX    TMP DP  RH WIND       PRES   REMARKS
NEWARK/LIBERTY PTSUNNY   43  18  36 N16G23    29.84S
TETERBORO      CLOUDY    37  23  56 N9        29.84S WCI  30
CALDWELL       PTSUNNY   40  17  39 N10G17    29.85S WCI  33
MORRISTOWN     PTSUNNY   39  18  41 N8G25     29.85F WCI  34
SOMERVILLE     SUNNY     39  14  36 NW14G24   29.84S WCI  31
SUSSEX         CLOUDY    35  16  45 NW12G23   29.86S WCI  27
ANDOVER          N/A     35  15  44 NW9G21    29.86S WCI  28
TRENTON        CLOUDY    39  15  37 NW15G24   29.86R WCI  31
MILLVILLE      CLOUDY    37  23  56 W20G29    29.89R WCI  27
ATLANTIC CITY  PTSUNNY   42  19  39 W16       29.85R
WRIGHTSTOWN    MOSUNNY   42  20  42 W18       29.82F
TOMS RIVER     CLOUDY    43  19  39 NW16G22   29.83S
BELMAR         PTSUNNY   43  18  36 NW16G22   29.82R
$$

PAZ047>061-062-071-281900-
EASTERN PENNSYLVANIA

CITY           SKY/WX    TMP DP  RH WIND       PRES   REMARKS
PHILADELPHIA   CLOUDY    40  16  37 NW18G25   29.90S WCI  31
ALLENTOWN      CLOUDY    36  14  40 NW20G30   29.90S WCI  25
SCRANTON       CLOUDY    28  11  48 N15G26    29.92S WCI  16
$$

CTZ002-004>006-009-010-012-RIZ004-006-007-MAZ004-011-015-281900-
SOUTHERN NEW ENGLAND
 IN CT

CITY           SKY/WX    TMP DP  RH WIND       PRES   REMARKS
BRADLEY INTL   LGT SNOW  34  31  88 N9        29.78S VSB 1   WCI  27
HARTFORD       LGT SNOW  34  31  88 N8        29.79S VSB 3/4 WCI  27
DANBURY        LGT SNOW  30  22  72 NW13G18   29.83S WCI  20
WTRBRY/OXFORD  CLOUDY    28  21  74 NW12      29.79S VSB 1   WCI  18
BRIDGEPORT     LGT SNOW  32  27  81 NW18G31   29.80R WCI  20
MERIDEN        LGT SNOW  32  28  85 NW10      29.79S VSB 3/4 WCI  24
NEW HAVEN      LGT SNOW  33  29  85 NW13      29.79R VSB 1   WCI  24
CHESTER        LGT SNOW  32  32 100 N15G21    29.76S VSB 1   WCI  22
GROTON         LGT RAIN  37  35  92 N15       29.74S WCI  28
WILLIMANTIC    LGT SNOW  35  29  78 N9        29.76S WCI  28

 IN RI

CITY           SKY/WX    TMP DP  RH WIND       PRES   REMARKS
PROVIDENCE     LGT SNOW  35  32  88 N15       29.74S VSB 1   WCI  25
BLOCK ISLAND   CLOUDY    36  32  87 N8        29.72R WCI  29
WESTERLY       LGT RAIN  36  33  89 N13       29.74S WCI  27

 IN MA

CITY           SKY/WX    TMP DP  RH WIND       PRES   REMARKS
BOSTON         LGT SNOW  32  30  92 N12       29.76S VSB 1   WCI  23
WORCESTER      LGT SNOW  31  28  89 NE8       29.73S VSB 3/4 WCI  23
WESTFIELD      LGT SNOW  34  29  82 N12       29.79R WCI  25
PROVINCETOWN   CLOUDY    34  30  86 N21G29    29.72R WCI  22
NANTUCKET      LGT SNOW  36  33  89 N20G30    29.64S FOG     WCI  25
$$

ANZ330-335-338-340-345-350-353-355-281900-
COASTAL MARINE OBSERVATIONS


STATION/POSITION TIME  SKY/WX   TEMP    WIND        PRES    VSBY  WAVE
                                AIR SEA DIR/SP/G                  HT/PER
                 (UTC)          (F)     (DEG/KT/KT) (MB)    (MI)  (FT/S)
NY HARB ENTRANCE 1750            34 38  350/ 19/ 21 1009.5          3/11
4S FIRE IS       1703               36                N/A           4/11
20S FIRE ISLAND  1650               38              1009.1          5/ 5
23SW MTP         1750                                 N/A           6/11
HUDSON CANYON    NOT AVBL
EXECUTION ROCKS  NOT AVBL
WESTERN LI SOUND NOT AVBL
CENTRAL LI SOUND NOT AVBL
EASTERN LI SOUND NOT AVBL
ROBBINS REEF     1700            36     360/ 15/ 19 1009.1
$$


>>>>>>>>>>>>>>>>>>>>>>>>>>>> KEY <<<<<<<<<<<<<<<<<<<<<<<<<<<
>                                                          <
>     SKY/WX - SKY CONDITION/PRESENT WEATHER               <
>     TMP    - TEMPERATURE IN FAHRENHEIT                   <
>     DP     - DEWPOINT IN FAHRENHEIT                      <
>     RH     - RELATIVE HUMIDITY IN PERCENT                <
>     WIND   - DIRECTION AND SPEED IN MPH                  <
>     PRES   - MEAN SEA LEVEL PRESSURE IN INCHES OF HG     <
>     WCI    - WIND CHILL INDEX                            <
>     VSB    - VISIBILITY IN MILES                         <
>     HX     - HEAT INDEX                                  <
>     TC     - TEMPERATURE IN CELSIUS                      <
>     VRB    - VARIABLE WIND DIRECTION                     <
>                                                          <
>>>>>>>>>>>>>>>>>>>>>>>>>>>> KEY <<<<<<<<<<<<<<<<<<<<<<<<<<<




USA.gov is the U.S. government's official web portal to all federal, state and local government web resources and services.